Previsão horária em Çayeli

Hoje, 3 Agosto, Terça-feira

Tempo Temperatura Precipitação Vento Pressão Humidade
00:00 +26°C° 0.1 mm 1 m/s 757 mmHg 91%
01:00 +26°C° 0.1 mm 1 m/s 757 mmHg 91%
02:00 +26°C° 0.1 mm 1 m/s 757 mmHg 91%
03:00 +24°C° 0 mm 0 m/s 757 mmHg 91%
04:00 +24°C° 0 mm 0 m/s 757 mmHg 90%
05:00 +26°C° 0 mm 1 m/s 757 mmHg 89%
06:00 +26°C° 0 mm 1 m/s 757 mmHg 88%
07:00 +27°C° 0 mm 1 m/s 757 mmHg 83%
08:00 +29°C° 0 mm 1 m/s 757 mmHg 79%
09:00 +30°C° 0 mm 1 m/s 757 mmHg 75%
10:00 +30°C° 0.1 mm 1 m/s 757 mmHg 76%
11:00 +30°C° 0.1 mm 1 m/s 757 mmHg 76%
12:00 +30°C° 0.1 mm 1 m/s 758 mmHg 76%
13:00 +30°C° 0.1 mm 1 m/s 757 mmHg 77%
14:00 +30°C° 0.1 mm 1 m/s 757 mmHg 77%
15:00 +30°C° 0.1 mm 1 m/s 757 mmHg 78%
16:00 +30°C° 0.1 mm 1 m/s 757 mmHg 80%
17:00 +30°C° 0.1 mm 1 m/s 757 mmHg 82%
18:00 +27°C° 0.1 mm 0 m/s 757 mmHg 84%
19:00 +27°C° 0 mm 0 m/s 757 mmHg 85%
20:00 +26°C° 0 mm 0 m/s 757 mmHg 86%
21:00 +26°C° 0 mm 0 m/s 757 mmHg 87%
22:00 +25°C° 0 mm 0 m/s 758 mmHg 87%
23:00 +25°C° 0 mm 0 m/s 758 mmHg 87%

Amanhã, 4 Agosto, Quarta-feira

Tempo Temperatura Precipitação Vento Pressão Humidade
00:00 +27°C° 0 mm 1 m/s 758 mmHg 87%
01:00 +27°C° 0 mm 1 m/s 758 mmHg 87%
02:00 +26°C° 0 mm 1 m/s 758 mmHg 88%
03:00 +26°C° 0 mm 1 m/s 759 mmHg 89%
04:00 +27°C° 0 mm 1 m/s 759 mmHg 87%
05:00 +27°C° 0 mm 1 m/s 759 mmHg 85%
06:00 +27°C° 0 mm 1 m/s 759 mmHg 83%
07:00 +28°C° 0 mm 1 m/s 759 mmHg 80%
08:00 +29°C° 0 mm 1 m/s 759 mmHg 76%
09:00 +31°C° 0 mm 1 m/s 759 mmHg 73%
10:00 +31°C° 0 mm 1 m/s 759 mmHg 73%
11:00 +31°C° 0 mm 2 m/s 758 mmHg 74%
12:00 +31°C° 0 mm 2 m/s 758 mmHg 75%
13:00 +31°C° 0.1 mm 2 m/s 758 mmHg 77%
14:00 +31°C° 0.1 mm 1 m/s 758 mmHg 79%
15:00 +31°C° 0.1 mm 1 m/s 758 mmHg 81%
16:00 +30°C° 0.1 mm 1 m/s 758 mmHg 82%
17:00 +30°C° 0.1 mm 1 m/s 758 mmHg 84%
18:00 +30°C° 0.1 mm 1 m/s 758 mmHg 85%
19:00 +29°C° 0 mm 1 m/s 759 mmHg 87%
20:00 +28°C° 0 mm 1 m/s 759 mmHg 90%
21:00 +28°C° 0 mm 1 m/s 759 mmHg 92%
22:00 +28°C° 0.1 mm 1 m/s 759 mmHg 91%
23:00 +27°C° 0.1 mm 1 m/s 759 mmHg 89%

Depois de amanhã, 5 Agosto, Quinta-feira

Tempo Temperatura Precipitação Vento Pressão Humidade
00:00 +27°C° 0.1 mm 1 m/s 759 mmHg 87%
01:00 +27°C° 0 mm 1 m/s 759 mmHg 87%
02:00 +27°C° 0 mm 1 m/s 759 mmHg 87%
03:00 +26°C° 0 mm 1 m/s 759 mmHg 87%
04:00 +26°C° 0 mm 1 m/s 759 mmHg 86%
05:00 +26°C° 0 mm 1 m/s 759 mmHg 85%
06:00 +27°C° 0 mm 1 m/s 758 mmHg 83%
07:00 +28°C° 0 mm 1 m/s 758 mmHg 80%
08:00 +29°C° 0 mm 1 m/s 758 mmHg 76%
09:00 +31°C° 0 mm 1 m/s 758 mmHg 72%
10:00 +31°C° 0 mm 1 m/s 758 mmHg 72%
11:00 +32°C° 0 mm 1 m/s 758 mmHg 71%
12:00 +32°C° 0 mm 1 m/s 757 mmHg 70%
13:00 +32°C° 0 mm 1 m/s 757 mmHg 72%
14:00 +32°C° 0 mm 2 m/s 757 mmHg 73%
15:00 +32°C° 0 mm 2 m/s 757 mmHg 75%
16:00 +31°C° 0.1 mm 1 m/s 756 mmHg 78%
17:00 +31°C° 0.1 mm 1 m/s 756 mmHg 81%
18:00 +28°C° 0.1 mm 0 m/s 756 mmHg 84%
19:00 +29°C° 0.2 mm 1 m/s 756 mmHg 84%
20:00 +29°C° 0.2 mm 1 m/s 756 mmHg 84%
21:00 +28°C° 0.2 mm 1 m/s 756 mmHg 84%
22:00 +28°C° 0.1 mm 1 m/s 756 mmHg 81%
23:00 +28°C° 0.1 mm 2 m/s 756 mmHg 79%

6 Agosto, Sexta-feira

Tempo Temperatura Precipitação Vento Pressão Humidade
00:00 +27°C° 0.1 mm 2 m/s 756 mmHg 76%
01:00 +27°C° 0 mm 2 m/s 755 mmHg 74%
02:00 +28°C° 0 mm 2 m/s 755 mmHg 71%
03:00 +28°C° 0 mm 2 m/s 754 mmHg 68%
04:00 +28°C° 0 mm 2 m/s 754 mmHg 67%
05:00 +28°C° 0 mm 2 m/s 754 mmHg 66%
06:00 +28°C° 0 mm 2 m/s 754 mmHg 65%
07:00 +29°C° 0 mm 1 m/s 754 mmHg 63%
08:00 +31°C° 0 mm 1 m/s 754 mmHg 60%
09:00 +33°C° 0 mm 1 m/s 753 mmHg 58%
10:00 +33°C° 0 mm 1 m/s 753 mmHg 56%
11:00 +34°C° 0 mm 1 m/s 753 mmHg 55%
12:00 +36°C° 0 mm 2 m/s 752 mmHg 53%
13:00 +36°C° 0.1 mm 2 m/s 752 mmHg 56%
14:00 +36°C° 0.1 mm 2 m/s 751 mmHg 58%
15:00 +35°C° 0.1 mm 2 m/s 751 mmHg 61%
16:00 +34°C° 0.2 mm 2 m/s 751 mmHg 67%
17:00 +31°C° 0.2 mm 2 m/s 752 mmHg 72%
18:00 +30°C° 0.2 mm 2 m/s 752 mmHg 78%
19:00 +30°C° 0 mm 3 m/s 752 mmHg 74%
20:00 +30°C° 0 mm 4 m/s 752 mmHg 69%
21:00 +30°C° 0 mm 5 m/s 751 mmHg 64%
22:00 +30°C° 0 mm 5 m/s 751 mmHg 64%
23:00 +30°C° 0 mm 5 m/s 751 mmHg 63%

7 Agosto, Sábado

Tempo Temperatura Precipitação Vento Pressão Humidade
00:00 +30°C° 0 mm 5 m/s 751 mmHg 62%
01:00 +29°C° 0 mm 4 m/s 751 mmHg 60%
02:00 +29°C° 0 mm 4 m/s 750 mmHg 58%
03:00 +29°C° 0 mm 3 m/s 750 mmHg 56%
04:00 +30°C° 0 mm 3 m/s 750 mmHg 56%
05:00 +30°C° 0 mm 3 m/s 750 mmHg 55%
06:00 +30°C° 0 mm 3 m/s 750 mmHg 55%
07:00 +33°C° 0 mm 3 m/s 750 mmHg 51%
08:00 +35°C° 0 mm 2 m/s 750 mmHg 47%
09:00 +37°C° 0 mm 2 m/s 750 mmHg 43%
10:00 +37°C° 0 mm 2 m/s 751 mmHg 43%
11:00 +37°C° 0 mm 3 m/s 751 mmHg 43%
12:00 +38°C° 0 mm 3 m/s 751 mmHg 43%
13:00 +37°C° 0.1 mm 4 m/s 751 mmHg 47%
14:00 +36°C° 0.1 mm 4 m/s 752 mmHg 50%
15:00 +35°C° 0.1 mm 5 m/s 752 mmHg 54%
16:00 +35°C° 0.2 mm 4 m/s 752 mmHg 56%
17:00 +34°C° 0.2 mm 3 m/s 752 mmHg 58%
18:00 +34°C° 0.2 mm 3 m/s 752 mmHg 60%
19:00 +33°C° 0 mm 3 m/s 753 mmHg 60%
20:00 +30°C° 0 mm 3 m/s 753 mmHg 61%
21:00 +29°C° 0 mm 3 m/s 754 mmHg 62%
22:00 +29°C° 0 mm 3 m/s 754 mmHg 64%
23:00 +28°C° 0 mm 3 m/s 755 mmHg 66%

8 Agosto, Domingo

Tempo Temperatura Precipitação Vento Pressão Humidade
00:00 +27°C° 0 mm 3 m/s 756 mmHg 68%
01:00 +27°C° 0 mm 3 m/s 755 mmHg 67%
02:00 +27°C° 0 mm 2 m/s 755 mmHg 65%
03:00 +27°C° 0 mm 2 m/s 755 mmHg 64%
04:00 +27°C° 0 mm 3 m/s 756 mmHg 67%
05:00 +27°C° 0 mm 3 m/s 756 mmHg 69%
06:00 +27°C° 0 mm 3 m/s 756 mmHg 72%
07:00 +28°C° 0.3 mm 4 m/s 757 mmHg 73%
08:00 +29°C° 0.3 mm 4 m/s 757 mmHg 75%
09:00 +30°C° 0.3 mm 4 m/s 757 mmHg 77%
10:00 +29°C° 0.9 mm 4 m/s 758 mmHg 80%
11:00 +29°C° 0.9 mm 4 m/s 758 mmHg 83%
12:00 +29°C° 0.9 mm 3 m/s 758 mmHg 86%
13:00 +29°C° 0.7 mm 3 m/s 759 mmHg 86%
14:00 +29°C° 0.7 mm 3 m/s 759 mmHg 86%
15:00 +29°C° 0.7 mm 2 m/s 759 mmHg 86%
16:00 +28°C° 0.7 mm 2 m/s 759 mmHg 88%
17:00 +28°C° 0.7 mm 3 m/s 760 mmHg 91%
18:00 +27°C° 0.7 mm 3 m/s 760 mmHg 93%
19:00 +27°C° 1 mm 2 m/s 760 mmHg 93%
20:00 +26°C° 1 mm 2 m/s 761 mmHg 93%
21:00 +26°C° 1 mm 2 m/s 761 mmHg 93%
22:00 +26°C° 0.5 mm 2 m/s 761 mmHg 93%
23:00 +26°C° 0.5 mm 2 m/s 761 mmHg 92%
Mostrar mais

Necessitamos do seu Consentimento

A Meteoprog e os seus Fornecedores de Serviços podem armazenar e aceder a dados pessoais como cookies, identificadores do dispositivo ou outras tecnologias semelhantes existentes no seu dispositivo e processar estes dados para personalizar conteúdos e anúncios, assim como funcionalidades nas redes sociais e análise de tráfego.

  • Armazenar e/ou aceder a informações no seu dispositivo

    Os cookies, identificadores do dispositivo ou outras informações podem ser armazenados ou acedidos no seu dispositivo, para os fins acima indicados.

  • Anúncios e conteúdos personalizados, medição de anúncios e conteúdos, dados sobre o público-alvo e desenvolvimento de produtos

    Os anúncios e os conteúdos podem ser personalizados com base num perfil. Podem ser adicionados dados adicionais para uma maior personalização dos anúncios e dos conteúdos. A eficácia dos anúncios e dos conteúdos pode ser medida. Podem ser obtidas informações sobre o público que visualizou os anúncios e os conteúdos. Estes dados podem ser usados para desenvolver ou melhorar sistemas, softwares ou a experiência do utilizador.

Ao clicar em "Eu concordo”, permitirá o uso de cookies, identificadores do dispositivo e web beacons mencionados ou outras tecnologias semelhantes. As configurações do navegador do seu dispositivo podem ser alteradas.

Para certos fins, podem ser invocados interesses legítimos ao invés de consentimento. Pode ler mais informação sobre este assunto na nossa Política de Privacidade e Cookies.